Home   Weather   Tábor   Past weeks

Flag for Czech Republic Past Weather in Tábor, Czech Republic — Yesterday and Last 2 Weeks

Now
41 °F

Light rain. Overcast.


Feels Like: 39 °F
Forecast: 36 / 43 °F
Wind: 3 mph from Northeast

Location: Kocelovice

Current Time: Apr 27, 2017 at 1:07:01 pm

Latest Report: Apr 27, 2017 at 12:00 pm


Visibility: 11 mi

Pressure: 29.97 "Hg

Humidity: 74%

Dew Point: 33 °F

Location of TáborLocation

Past Weather in Tábor — Graph

°F

Tábor Temperature Yesterday

Maximum temperature yesterday: 44 °F (at 12:00 am)
Minimum temperature yesterday: 34 °F (at 8:00 am)
Average temperature yesterday: 38 °F

High & Low Weather Summary for the Past Weeks

 TemperatureHumidityPressure
High60 °F (Apr 25, 3:00 pm)100% (Apr 27, 5:00 am)30.57 "Hg (Apr 27, 5:00 am)
Low27 °F (Apr 21, 6:00 am)38% (Apr 21, 6:00 pm)29.67 "Hg (Apr 25, 3:00 pm)
Average42 °F72%30.07 "Hg
* Reported Apr 12 11:00 am — Apr 27 11:00 am, Tábor, Weather by CustomWeather, © 2017

Note: Actual official high and low records may vary slightly from our data, if they occured in-between our weather recording intervals... More about our weather records

Advertising

Tábor Weather History for the Previous 24 Hours

Scroll right to see more
 ConditionsComfort  
Time TempWeatherWind HumidityBarometerVisibility
11:00 am
Thu, Apr 27
41 °FLight rain. Overcast.3 mph77%29.98 "Hg9 mi
10:00 am39 °FLight rain. Overcast.6 mph80%29.95 "Hg9 mi
9:00 am38 °FLight rain. Low clouds.2 mph90%29.95 "Hg8 mi
8:00 am37 °FLight rain. Low clouds.1 mph96%29.94 "Hg4 mi
7:00 am36 °FLight rain. Cloudy.N/A97%29.94 "Hg4 mi
6:00 am36 °FLight rain. Cloudy.N/A99%29.92 "Hg1 mi
5:00 am35 °FLight rain. Overcast.1 mph100%29.91 "Hg1 mi
4:00 am36 °FLight rain. Overcast.2 mph99%29.91 "Hg1 mi
3:00 am36 °FLight rain. Overcast.1 mph98%29.92 "Hg1 mi
2:00 am36 °FLight rain. Overcast.N/A97%29.91 "Hg3 mi
1:00 am36 °FLight rain. Overcast.2 mph99%29.94 "Hg2 mi
12:00 am37 °FLight rain. Overcast.No wind97%29.93 "Hg2 mi
11:00 pm
Wed, Apr 26
38 °FLight rain. Overcast.1 mph98%29.93 "Hg1 mi
10:00 pm38 °FLight rain. Low clouds.N/A98%29.93 "Hg2 mi
9:00 pm38 °FLight rain. Low clouds.N/A97%29.92 "Hg5 mi
8:00 pm38 °FLight rain. Low clouds.2 mph96%29.90 "Hg6 mi
7:00 pm38 °FLight rain. Low clouds.2 mph93%29.90 "Hg8 mi
6:00 pm38 °FLight rain. Low clouds.2 mph93%29.89 "Hg9 mi
5:00 pm38 °FLight rain. Low clouds.5 mph93%29.88 "Hg9 mi
4:00 pm38 °FLight rain. Low clouds.3 mph93%29.88 "Hg7 mi
3:00 pm38 °FLight rain. Low clouds.3 mph93%29.87 "Hg8 mi
2:00 pm38 °FLight rain. Low clouds.3 mph94%29.86 "Hg9 mi
1:00 pm37 °FLight rain. Low clouds.5 mph94%29.86 "Hg9 mi
Weather by CustomWeather, © 2017

See weather overviewHow to use our weather pages